Flag for U.S.A. Weather past 2 weeks in Salt Lake City, Utah, U.S.A.

Now
55 °F

Clear.


Feels Like: 55 °F
Forecast: 53 / 76 °F
Wind: No wind

Location: Salt Lake City International Airport

Current Time: Oct 19, 2014 at 10:58:56 PM

Latest Report: Oct 19, 2014 at 8:53 PM


Visibility: 10 mi

Pressure: 29.96 "Hg

Humidity: 72%

Dew point: 46 °F

Location of Salt Lake CityLocation

Historic Weather in Salt Lake City — Graph

°F

Salt Lake City temperature yesterday

Maximum temperature yesterday: 72 °F (at 4:53 PM)
Minimum temperature yesterday: 47 °F (at 5:53 AM)
Average temperature yesterday: 58 °F

Past Weeks' High & Low Weather Summary

 TemperatureHumidityPressure
High79 °F (Oct 8, 3:53 PM)80% (Oct 18, 2:53 AM)30.27 "Hg (Oct 18, 2:53 AM)
Low41 °F (Oct 13, 7:53 AM)10% (Oct 15, 4:53 PM)29.68 "Hg (Oct 15, 4:53 PM)
Average59 °F48%29.99 "Hg
* Reported Oct 4 8:53 PM — Oct 19 8:53 PM, Salt Lake City, Weather by CustomWeather, © 2014

Note: Actual official high and low records may vary slightly from our data, if they occured in-between our weather recording intervals... More about our weather records

Advertising

Salt Lake City weather history for previous 24 hours

 ConditionsComfort  
Time TempWeatherWind HumidityBarometerVisibility
8:53 PM
Oct 19
55 °FClear.No wind72%29.96 "Hg10 mi
7:53 PM59 °FClear.5 mph60%29.97 "Hg10 mi
6:53 PM63 °FSunny.6 mph50%29.95 "Hg10 mi
5:53 PM69 °FSunny.8 mph36%29.93 "Hg10 mi
4:53 PM72 °FPassing clouds.6 mph26%29.92 "Hg10 mi
3:53 PM72 °FPassing clouds.7 mph25%29.93 "Hg10 mi
2:53 PM72 °FPassing clouds.8 mph27%29.95 "Hg10 mi
1:53 PM70 °FPassing clouds.7 mph29%29.98 "Hg10 mi
12:53 PM68 °FPassing clouds.3 mph31%30.00 "Hg10 mi
11:53 AM65 °FSunny.No wind36%30.02 "Hg10 mi
10:53 AM60 °FSunny.3 mph44%30.03 "Hg10 mi
9:53 AM56 °FSunny.5 mph51%30.03 "Hg10 mi
8:53 AM50 °FSunny.6 mph66%30.03 "Hg10 mi
7:53 AM44 °FClear.7 mph79%30.02 "Hg10 mi
6:53 AM44 °FClear.7 mph79%30.00 "Hg10 mi
5:53 AM46 °FClear.7 mph71%29.98 "Hg10 mi
4:53 AM47 °FClear.No wind74%29.97 "Hg10 mi
3:53 AM48 °FClear.5 mph71%29.97 "Hg10 mi
2:53 AM50 °FClear.No wind68%29.97 "Hg10 mi
1:53 AM48 °FClear.6 mph74%29.97 "Hg10 mi
12:53 AM49 °FClear.7 mph71%29.96 "Hg10 mi
11:53 PM
Oct 18
51 °FClear.3 mph71%29.96 "Hg10 mi
10:53 PM54 °FClear.3 mph64%29.97 "Hg10 mi
Weather by CustomWeather, © 2014

See weather overviewHow to use our weather pages